Погода в Соловьевске

Погода в Соловьевске : погода сейчас, прогноз погоды и архив. Всё, что Вы хотите узнать о погоде в Соловьевске!

Поиск расширенной информации на нашем сайте:

Другие новости

Новости СМИ2

Главная страница сайта

Новости сайта

02.10.2013

Напоминаем, что на нашем новом сайте вы можете получить высокодетализированные прогнозы погоды по пунктам России, СНГ и мира (включающие важные для авиации метеовеличины, такие как направление и скорость ветра, видимость, явления погоды, количество и форма облачности, нижняя и верхняя граница облачности), а также ознакомиться с разнообразными материалами по авиационной метеорологии и подборкой полезных ссылок на эту тему.

Сайт Метеоцентр.Азия посвящён разработке технологий оптимизации авиаметеорологического обслуживания, включая проектирование и перспективное создание нескольких автоматизированных авиаметеорологических систем:
- система выпуска высокодетальных прогностических карт явлений погоды для нижнего воздушного пространства по России и ближнему зарубежью;
- система верификации прогнозов TAF (выпускаемых синоптиками официальных АМСГ РФ и ближнего зарубежья) и AUTOTAF (выпускаемых сайтом Метеоцентр.Азия) - выявление ошибок, онлайн-сопоставление с фактической погодой METAR, автоматическое внесение коррективов в прогнозы при резком отклонении фактической погоды от прогноза, подсчёт оправдываемости прогнозов по элементам и в целом;
- система обработки, анализа и отображения авиаметеорологической информации для применения провайдерами метеорологической информации.


Погода в Соловьевске - сегодня

Время (UTC), дата Ветер
(°,м/с) 
Видим.   Явления Облачность Т
(°С)
Тd
(°С)
f(%) Тe
(°С)
Pmin
(гПа)
dP
(гПа)
Po
(мм)
O2
(г/м3)
Тmin Tmax R s Состояние
почвы
09 21.05.17 170 (Ю) 20000 м    ясно 
+16.3 -12.3 13 +16  1016.3  -2.3  709  270           
15 21.05.17 170 (Ю) 20000 м    ясно 
+7.9 -10.6 26 +6  1018.3  0.4  709  278           
18 21.05.17 170 (Ю) 20000 м    ясно 
+3.5 -10.3 36 +2  1018.8  -0.7  708  283           
21 21.05.17 150 (ЮВ) 20000 м    ясно 
+1.5 -9.1 45 -1  1018.3  -0.9  708  284           
15 22.05.17 300 (СЗ) 20000 м    4/0 верхняя 
[Ci sp]
+7.9 -6.4 36 +7  1013.8  1.9  706  277           
18 22.05.17 290 (З) 20000 м    4/0 верхняя 
[Ci sp]
+6.8 -7.1 36 +6  1015  0.9  706  278           
21 22.05.17 280 (З) 20000 м    10/4 600 м кучево-дожд., верхняя 
[Cb cap|Ci sp]
+4.6 -6.4 45 +3  1015.1  -0.5  706  280           
09 23.05.17 340 (С) 4{12}  20000 м    9/6 600 м кучево-дожд., верхняя 
[Cb cap|Ci sp]
+16.6 +0.7 34 +17  1008.7  -1  704  267           
15 23.05.17 210 (ЮЗ) 20000 м    10/6 600 м кучево-дожд., верхняя 
[Cb cap|Ci sp]
+9.5 +2.8 63 +10  1011.2  704  274           
18 23.05.17 250 (З) 20000 м    10/6 600 м кучево-дожд., верхняя 
[Cb cap|Ci sp]
+9.5 +4.4 70 +10  1010.7  -0.5  704  273           
21 23.05.17 300 (СЗ) 20000 м    8/4 600 м кучево-дожд., верхняя 
[Cb cap|Ci sp]
+6.7 +3 77 +7  1011.4  704  276           
03 24.05.17 330 (СЗ) 4{11}  20000 м    3/0 верхняя 
[Ci sp]
+19.1 +1.8 31 +20  1008.6  -0.6  704  265           
09 24.05.17 050 (СВ) 5{11}  20000 м    8/5 600 м кучево-дожд., средняя 
[Cb cap|Ac trans]
+19.6 +3.4 34 +20  1008.2  0.2  704  264           
15 24.05.17 130 (ЮВ) 20000 м    3/3 600 м кучево-дожд. 
[Cb cap]
+12.1 +2.6 52 +12  1013.4  1.5  706  272           
18 24.05.17 140 (ЮВ) 20000 м    3/3 600 м кучево-дожд. 
[Cb cap]
+8.7 +2.6 65 +8  1014.4  706  275           
21 24.05.17 140 (ЮВ) 20000 м    3/3 600 м кучево-дожд., верхняя 
[Cb cap|Ci sp]
+6.6 +0.6 65 +6  1014.5  -0.4  706  278           
03 25.05.17 190 (Ю) 6{11}  20000 м    ясно 
+23.5 +2.2 25 +24  1007.4  -2.3  704  261           
09 25.05.17 080 (В) 20000 м    3/0 верхняя 
[Ci sp]
+30.1 -0.6 14 +30  1001  -1.6  701  254           
15 25.05.17 120 (ЮВ) 20000 м    8/0 верхняя 
[Ci sp]
+17.1 +3.7 41 +17  1003.6  0.1  700  265           
18 25.05.17 150 (ЮВ) 20000 м    6/0 верхняя 
[Ci sp]
+15.2 +2.5 42 +15  1003.3  -0.8  700  267           
21 25.05.17 140 (ЮВ) 20000 м    ясно 
+13.9 +3.7 50 +14  1002.9  -0.7  699  267           
09 26.05.17 240 (ЮЗ) 4{13}  20000 м    6/3 1000 м верхняя 
[Sc|Ci sp]
+35.3 -3.5 8 +35  992.3  -2  695  248           
15 26.05.17 170 (Ю) 5{10}  20000 м    10/10 600 м кучево-дожд. 
[Cb cap]
+26.2 -0.7 17 +26  995.6  1.4  696  256           
18 26.05.17 270 (З) 2{15}  20000 м    6/4 600 м кучево-дожд., верхняя 
[Cb cap|Ci sp]
+19.8 +1.6 30 +21  996.7  -0.4  696  261           
21 26.05.17 300 (СЗ) 20000 м    9/8 600 м кучево-дожд. 
[Cb cap]
+16.4 +7.4 55 +17  998.1  0.6  696  263           
Время (UTC), дата Ветер
(°,м/с) 
Видим.   Явления Облачность Т
(°С)
Тd
(°С)
f(%) Тe
(°С)
Pmin
(гПа)
dP
(гПа)
Po
(мм)
O2
(г/м3)
Тmin Tmax R s Состояние
почвы

Для получения пояснительной информации подведите курсор к названию столбца.

ПОГОДА в Соловьевске - архив

Всё, что Вы хотите узнать о погоде в Соловьевске - удобно и подробно!

Выберите нужную дату (начиная с 1 января 2015* года) и нажмите кнопку "Найти".
Будут отображены архивные сводки погоды по пункту Соловьевск, начиная с указанной даты.


Отображать данные в формате CSV (для использования в таблицах Excel)


Внимание! Наш архив погоды предназначен исключительно для личного некоммерческого использования в познавательных целях. Если Вам необходимы официальные справки о состоянии погоды (для производственных, юридических, коммерческих и т.п. целей), обращайтесь в органы Росгидромета.

*Примечание: данная дата относится к архиву по метеостанциям СССР (Россия, СНГ, Балтия).
Архив по метеостанциям Зарубежной Европы и Азии (кроме Китая) хранится 10 дней, по другим регионам земного шара (Китай, Африка, Америка, Австралия, Океания) - 1 день.

Соловьевск - район местоположения метеостанции


Название, широта, долгота, высота метеостанции:
Соловьевск 49.9°ш. 115.8°д. 623 м над ур. моря [Российская Федерация]

Дополнительная информация

В oтличие oт бoльшинства пoгoдных сайтoв мы публикуем пoдрoбную метеoинфoрмацию в детальнoм прoфессиoнальнoм фoрмате.

Характеристики температуры и влажнoсти вoздуха измеряются на высoте 2 м в тени вдали oт зданий и деревьев.
Скoрoсть ветра измеряется на высoте 10 м (на урoвне рoста челoвека скoрoсть ветра ниже в 1.5-2 раза). Если метеoстанция нахoдится в гoрoде или в лесу, тo скoрoсть ветра занижена на 2-4 м/с пo сравнению с oткрытым местoм. Скoрoсть ветра над акватoриями крупных рек и oзёр, а также на вершинах хoлмoв на 2-5 м/с выше, чем в oбычных услoвиях.
Атмoсфернoе давление в разных тoчках местнoсти мoжет значительнo oтличаться oт давления на метеoстанции, в зависимoсти oт услoвий рельефа (при пoдъёме на 10 м давление пoнижается примернo на 1 мм рт.ст.).